カタログに戻る

STARLINK-33764

運用中通信VLEO
NORAD 63510·PAYLOAD·🇺🇸 United States

打ち上げ Apr 7, 2025 から Vandenberg Space Force Base

Loading…

次のパス (今後24時間)

TLE

最新Source: CelesTrak SupGP

元期: Sep 15, 2026, 02:41 UTC

1 63510C 25071T   26258.11229167  .00072260  00000+0  21353-2 0  2582
2 63510  53.1573 338.6083 0001201  90.6187 195.2128 15.34349799    10

AllMySatでSTARLINK-33764をリアルタイム追跡

Download on the App Store